This is the latest recevied weather packets stored in our database for station/object KC5EZZ-2. If no packets are shown the sender has not sent any weather packets the latest 10 day(s).
| Time | Temp. | Humidity | Pressure | Rain* | Wind** | Luminosity | Snow |
|---|---|---|---|---|---|---|---|
| 1776923177 | 20.56° C | - | - | 0 mm | 3.58 m/s, 134° | - | - |
| 1776922874 | 20.56° C | - | - | 0 mm | 2.68 m/s, 135° | - | - |
| 1776922575 | 21.11° C | - | - | 0 mm | 4.02 m/s, 139° | - | - |
| 1776922275 | 21.11° C | - | - | 0 mm | 2.68 m/s, 165° | - | - |
| 1776921973 | 21.11° C | - | - | 0 mm | 3.58 m/s, 120° | - | - |
| 1776921673 | 21.11° C | - | - | 0 mm | 4.02 m/s, 162° | - | - |
| 1776921374 | 20.56° C | - | - | 0 mm | 4.02 m/s, 159° | - | - |
| 1776921071 | 21.11° C | - | - | 0 mm | 3.13 m/s, 169° | - | - |
| 1776920772 | 21.11° C | - | - | 0 mm | 4.02 m/s, 155° | - | - |
| 1776920472 | 21.11° C | - | - | 0 mm | 4.02 m/s, 138° | - | - |
| 1776920170 | 21.11° C | - | - | 0 mm | 4.02 m/s, 149° | - | - |
| 1776919870 | 21.11° C | - | - | 0 mm | 4.02 m/s, 138° | - | - |
| 1776919571 | 21.11° C | - | - | 0 mm | 3.13 m/s, 159° | - | - |
| 1776919268 | 21.11° C | - | - | 0 mm | 4.47 m/s, 145° | - | - |
| 1776918969 | 21.11° C | - | - | 0 mm | 4.92 m/s, 134° | - | - |
| 1776918669 | 21.67° C | - | - | 0 mm | 3.13 m/s, 143° | - | - |
| 1776918367 | 21.67° C | - | - | 0 mm | 3.58 m/s, 162° | - | - |
| 1776918067 | 21.67° C | - | - | 0 mm | 3.58 m/s, 180° | - | - |
| 1776917768 | 21.67° C | - | - | 0 mm | 3.58 m/s, 148° | - | - |
| 1776917466 | 21.67° C | - | - | 0 mm | 3.13 m/s, 156° | - | - |
| 1776917166 | 21.67° C | - | - | 0 mm | 3.58 m/s, 136° | - | - |
| 1776916866 | 22.22° C | - | - | 0 mm | 4.02 m/s, 135° | - | - |
| 1776916564 | 21.67° C | - | - | 0 mm | 4.02 m/s, 138° | - | - |
| 1776916265 | 22.22° C | - | - | 0 mm | 3.58 m/s, 138° | - | - |
| 1776915965 | 22.22° C | - | - | 0 mm | 4.92 m/s, 104° | - | - |
* Rain latest hour (hover to see other rain measurements)
** Current wind speed in m/s (hover to see current wind gust speed)